Time,TemperatureF,DewpointF,PressureIn,WindDirection,WindDirectionDegrees,WindSpeedMPH,WindSpeedGustMPH,Humidity,HourlyPrecipIn,Conditions,Clouds,dailyrainin,SoftwareType,DateUTC
2013-04-21 00:00:00,45.2,44.0,29.36,East,90,2.0,2.0,97,0.00,,,0.00,Rainwise IP-100,2013-04-21 04:00:00,
2013-04-21 00:01:00,45.2,44.0,29.36,East,90,2.0,2.0,97,0.00,,,0.00,Rainwise IP-100,2013-04-21 04:01:00,
2013-04-21 00:06:00,44.9,44.0,29.36,East,90,0.0,2.0,96,0.00,,,0.00,Rainwise IP-100,2013-04-21 04:06:00,
2013-04-21 00:11:00,44.9,44.0,29.36,East,90,0.0,0.0,96,0.00,,,0.00,Rainwise IP-100,2013-04-21 04:11:00,
2013-04-21 00:16:00,44.7,44.0,29.36,East,90,1.0,0.0,96,0.00,,,0.00,Rainwise IP-100,2013-04-21 04:16:00,
2013-04-21 00:21:00,44.5,44.0,29.36,East,90,1.0,2.0,96,0.00,,,0.00,Rainwise IP-100,2013-04-21 04:21:00,
2013-04-21 00:26:00,44.6,44.0,29.35,East,90,1.0,2.0,96,0.00,,,0.00,Rainwise IP-100,2013-04-21 04:26:00,
2013-04-21 00:31:00,44.4,43.0,29.35,East,90,1.0,2.0,96,0.00,,,0.00,Rainwise IP-100,2013-04-21 04:31:00,
2013-04-21 00:36:00,44.3,43.0,29.35,East,90,0.0,2.0,96,0.00,,,0.00,Rainwise IP-100,2013-04-21 04:36:00,
2013-04-21 00:41:00,44.2,43.0,29.35,East,90,1.0,2.0,96,0.00,,,0.00,Rainwise IP-100,2013-04-21 04:41:00,
2013-04-21 00:46:00,43.9,43.0,29.35,East,90,0.0,2.0,96,0.00,,,0.00,Rainwise IP-100,2013-04-21 04:46:00,
2013-04-21 00:51:00,43.6,43.0,29.35,East,90,0.0,0.0,96,0.00,,,0.00,Rainwise IP-100,2013-04-21 04:51:00,
2013-04-21 00:56:00,43.4,42.0,29.35,East,90,0.0,0.0,96,0.00,,,0.00,Rainwise IP-100,2013-04-21 04:56:00,
2013-04-21 01:01:00,43.4,42.0,29.35,East,90,2.0,2.0,96,0.00,,,0.00,Rainwise IP-100,2013-04-21 05:01:00,
2013-04-21 01:06:00,43.5,43.0,29.35,East,90,0.0,2.0,96,0.00,,,0.00,Rainwise IP-100,2013-04-21 05:06:00,
2013-04-21 01:11:00,43.6,43.0,29.35,East,90,2.0,2.0,96,0.00,,,0.00,Rainwise IP-100,2013-04-21 05:11:00,
2013-04-21 01:16:00,43.5,43.0,29.35,East,90,0.0,2.0,96,0.00,,,0.00,Rainwise IP-100,2013-04-21 05:16:00,
2013-04-21 01:21:00,43.4,42.0,29.35,East,90,1.0,2.0,96,0.00,,,0.00,Rainwise IP-100,2013-04-21 05:21:00,
2013-04-21 01:26:00,43.2,42.0,29.35,East,90,2.0,2.0,96,0.00,,,0.00,Rainwise IP-100,2013-04-21 05:26:00,
2013-04-21 01:31:00,42.9,42.0,29.35,East,90,1.0,2.0,96,0.00,,,0.00,Rainwise IP-100,2013-04-21 05:31:00,
2013-04-21 01:36:00,42.8,42.0,29.35,East,90,0.0,2.0,96,0.00,,,0.00,Rainwise IP-100,2013-04-21 05:36:00,
2013-04-21 01:41:00,42.8,42.0,29.35,SE,135,3.0,8.0,96,0.00,,,0.00,Rainwise IP-100,2013-04-21 05:41:00,
2013-04-21 01:46:00,42.9,42.0,29.35,SSE,157,0.0,6.0,96,0.00,,,0.00,Rainwise IP-100,2013-04-21 05:46:00,
2013-04-21 01:51:00,43.0,42.0,29.35,SE,135,0.0,0.0,96,0.00,,,0.00,Rainwise IP-100,2013-04-21 05:51:00,
2013-04-21 01:56:00,42.8,42.0,29.36,ESE,112,0.0,2.0,96,0.00,,,0.00,Rainwise IP-100,2013-04-21 05:56:00,
2013-04-21 02:01:00,42.5,42.0,29.35,ESE,112,0.0,0.0,96,0.00,,,0.00,Rainwise IP-100,2013-04-21 06:01:00,
2013-04-21 02:06:00,42.4,41.0,29.35,ESE,112,2.0,2.0,96,0.00,,,0.00,Rainwise IP-100,2013-04-21 06:06:00,
2013-04-21 02:11:00,42.3,41.0,29.35,ESE,112,0.0,2.0,96,0.00,,,0.00,Rainwise IP-100,2013-04-21 06:11:00,
2013-04-21 02:16:00,42.1,41.0,29.35,ESE,112,0.0,0.0,96,0.00,,,0.00,Rainwise IP-100,2013-04-21 06:16:00,
2013-04-21 02:21:00,42.0,41.0,29.35,ESE,112,2.0,2.0,96,0.00,,,0.00,Rainwise IP-100,2013-04-21 06:21:00,
2013-04-21 02:26:00,41.9,41.0,29.35,ESE,112,0.0,2.0,96,0.00,,,0.00,Rainwise IP-100,2013-04-21 06:26:00,
2013-04-21 02:31:00,41.7,41.0,29.35,ESE,112,0.0,0.0,96,0.00,,,0.00,Rainwise IP-100,2013-04-21 06:31:00,
2013-04-21 02:36:00,41.7,41.0,29.35,ESE,112,0.0,1.0,96,0.00,,,0.00,Rainwise IP-100,2013-04-21 06:36:00,
2013-04-21 02:41:00,41.6,41.0,29.35,ESE,112,0.0,1.0,96,0.00,,,0.00,Rainwise IP-100,2013-04-21 06:41:00,
2013-04-21 02:46:00,41.7,41.0,29.35,ESE,112,1.0,2.0,96,0.00,,,0.00,Rainwise IP-100,2013-04-21 06:46:00,
2013-04-21 02:51:00,41.6,41.0,29.35,ESE,112,0.0,2.0,96,0.00,,,0.00,Rainwise IP-100,2013-04-21 06:51:00,
2013-04-21 02:56:00,41.5,41.0,29.35,ESE,112,0.0,2.0,96,0.00,,,0.00,Rainwise IP-100,2013-04-21 06:56:00,
2013-04-21 03:01:00,41.4,40.0,29.35,ESE,112,0.0,1.0,96,0.00,,,0.00,Rainwise IP-100,2013-04-21 07:01:00,
2013-04-21 03:06:00,41.2,40.0,29.35,ESE,112,2.0,2.0,96,0.00,,,0.00,Rainwise IP-100,2013-04-21 07:06:00,
2013-04-21 03:11:00,41.4,40.0,29.35,ESE,112,2.0,2.0,96,0.00,,,0.00,Rainwise IP-100,2013-04-21 07:11:00,
2013-04-21 03:16:00,41.5,41.0,29.35,ESE,112,2.0,2.0,96,0.00,,,0.00,Rainwise IP-100,2013-04-21 07:16:00,
2013-04-21 03:21:00,41.4,40.0,29.36,ESE,112,2.0,2.0,96,0.00,,,0.00,Rainwise IP-100,2013-04-21 07:21:00,
2013-04-21 03:26:00,41.2,40.0,29.36,ESE,112,0.0,2.0,96,0.00,,,0.00,Rainwise IP-100,2013-04-21 07:26:00,
2013-04-21 03:31:00,40.9,40.0,29.36,ESE,112,1.0,2.0,96,0.00,,,0.00,Rainwise IP-100,2013-04-21 07:31:00,
2013-04-21 03:36:00,40.9,40.0,29.36,ESE,112,0.0,2.0,96,0.00,,,0.00,Rainwise IP-100,2013-04-21 07:36:00,
2013-04-21 03:41:00,40.9,40.0,29.36,ESE,112,1.0,2.0,96,0.00,,,0.00,Rainwise IP-100,2013-04-21 07:41:00,
2013-04-21 03:46:00,40.8,40.0,29.36,ESE,112,2.0,2.0,96,0.00,,,0.00,Rainwise IP-100,2013-04-21 07:46:00,
2013-04-21 03:51:00,40.6,40.0,29.36,ESE,112,1.0,2.0,96,0.00,,,0.00,Rainwise IP-100,2013-04-21 07:51:00,
2013-04-21 03:56:00,40.5,40.0,29.36,ESE,112,0.0,2.0,96,0.00,,,0.00,Rainwise IP-100,2013-04-21 07:56:00,
2013-04-21 04:01:00,40.3,39.0,29.36,ESE,112,0.0,1.0,96,0.00,,,0.00,Rainwise IP-100,2013-04-21 08:01:00,
2013-04-21 04:06:00,39.9,39.0,29.36,ESE,112,0.0,0.0,96,0.00,,,0.00,Rainwise IP-100,2013-04-21 08:06:00,
2013-04-21 04:11:00,39.9,39.0,29.36,ESE,112,1.0,2.0,96,0.00,,,0.00,Rainwise IP-100,2013-04-21 08:11:00,
2013-04-21 04:16:00,40.1,39.0,29.36,ESE,112,0.0,2.0,96,0.00,,,0.00,Rainwise IP-100,2013-04-21 08:16:00,
2013-04-21 04:21:00,39.9,39.0,29.36,ESE,112,0.0,2.0,96,0.00,,,0.00,Rainwise IP-100,2013-04-21 08:21:00,
2013-04-21 04:26:00,39.8,39.0,29.36,ESE,112,2.0,2.0,96,0.00,,,0.00,Rainwise IP-100,2013-04-21 08:26:00,
2013-04-21 04:31:00,39.8,39.0,29.35,ESE,112,1.0,2.0,96,0.00,,,0.00,Rainwise IP-100,2013-04-21 08:31:00,
2013-04-21 04:36:00,39.6,39.0,29.36,ESE,112,1.0,2.0,96,0.00,,,0.00,Rainwise IP-100,2013-04-21 08:36:00,
2013-04-21 04:41:00,39.6,39.0,29.35,ESE,112,2.0,2.0,96,0.00,,,0.00,Rainwise IP-100,2013-04-21 08:41:00,
2013-04-21 04:46:00,39.6,39.0,29.35,ESE,112,0.0,2.0,96,0.00,,,0.00,Rainwise IP-100,2013-04-21 08:46:00,
2013-04-21 04:51:00,39.4,38.0,29.35,ESE,112,1.0,2.0,96,0.00,,,0.00,Rainwise IP-100,2013-04-21 08:51:00,
2013-04-21 04:56:00,39.3,38.0,29.35,ESE,112,0.0,1.0,96,0.00,,,0.00,Rainwise IP-100,2013-04-21 08:56:00,
2013-04-21 05:01:00,39.2,38.0,29.35,ESE,112,0.0,0.0,96,0.00,,,0.00,Rainwise IP-100,2013-04-21 09:01:00,
2013-04-21 05:06:00,39.2,38.0,29.35,ESE,112,2.0,2.0,96,0.00,,,0.00,Rainwise IP-100,2013-04-21 09:06:00,
2013-04-21 05:11:00,39.3,38.0,29.35,ESE,112,1.0,2.0,96,0.00,,,0.00,Rainwise IP-100,2013-04-21 09:11:00,
2013-04-21 05:16:00,39.2,38.0,29.35,ESE,112,2.0,2.0,96,0.00,,,0.00,Rainwise IP-100,2013-04-21 09:16:00,
2013-04-21 05:21:00,39.2,38.0,29.35,ESE,112,0.0,2.0,96,0.00,,,0.00,Rainwise IP-100,2013-04-21 09:21:00,
2013-04-21 05:26:00,39.1,38.0,29.36,ESE,112,0.0,1.0,96,0.00,,,0.00,Rainwise IP-100,2013-04-21 09:26:00,
2013-04-21 05:31:00,39.1,38.0,29.36,ESE,112,2.0,2.0,96,0.00,,,0.00,Rainwise IP-100,2013-04-21 09:31:00,
2013-04-21 05:36:00,38.9,38.0,29.36,ESE,112,0.0,2.0,96,0.00,,,0.00,Rainwise IP-100,2013-04-21 09:36:00,
2013-04-21 05:41:00,38.9,38.0,29.36,ESE,112,1.0,2.0,96,0.00,,,0.00,Rainwise IP-100,2013-04-21 09:41:00,
2013-04-21 05:46:00,38.7,38.0,29.36,ESE,112,1.0,2.0,96,0.00,,,0.00,Rainwise IP-100,2013-04-21 09:46:00,
2013-04-21 05:51:00,38.5,38.0,29.36,ESE,112,1.0,2.0,96,0.00,,,0.00,Rainwise IP-100,2013-04-21 09:51:00,
2013-04-21 05:56:00,38.4,37.0,29.37,ESE,112,1.0,2.0,96,0.00,,,0.00,Rainwise IP-100,2013-04-21 09:56:00,
2013-04-21 06:01:00,38.5,38.0,29.37,ESE,112,2.0,2.0,96,0.00,,,0.00,Rainwise IP-100,2013-04-21 10:01:00,
2013-04-21 06:06:00,38.6,38.0,29.37,ESE,112,0.0,2.0,96,0.00,,,0.00,Rainwise IP-100,2013-04-21 10:06:00,
2013-04-21 06:11:00,38.5,38.0,29.37,ESE,112,0.0,0.0,96,0.00,,,0.00,Rainwise IP-100,2013-04-21 10:11:00,
2013-04-21 06:16:00,38.6,38.0,29.38,ESE,112,1.0,2.0,96,0.00,,,0.00,Rainwise IP-100,2013-04-21 10:16:00,
2013-04-21 06:21:00,38.6,38.0,29.38,ESE,112,0.0,2.0,96,0.00,,,0.00,Rainwise IP-100,2013-04-21 10:21:00,
2013-04-21 06:26:00,38.4,37.0,29.39,ESE,112,1.0,0.0,96,0.00,,,0.00,Rainwise IP-100,2013-04-21 10:26:00,
2013-04-21 06:31:00,38.5,38.0,29.39,ESE,112,1.0,2.0,96,0.00,,,0.00,Rainwise IP-100,2013-04-21 10:31:00,
2013-04-21 06:36:00,38.7,38.0,29.39,ESE,112,1.0,2.0,96,0.00,,,0.00,Rainwise IP-100,2013-04-21 10:36:00,
2013-04-21 06:41:00,38.9,38.0,29.39,ESE,112,2.0,2.0,96,0.00,,,0.00,Rainwise IP-100,2013-04-21 10:41:00,
2013-04-21 06:46:00,39.1,38.0,29.39,ESE,112,1.0,2.0,96,0.00,,,0.00,Rainwise IP-100,2013-04-21 10:46:00,
2013-04-21 06:51:00,39.2,38.0,29.40,ESE,112,2.0,2.0,96,0.00,,,0.00,Rainwise IP-100,2013-04-21 10:51:00,
2013-04-21 06:56:00,39.2,38.0,29.40,ESE,112,0.0,2.0,96,0.00,,,0.00,Rainwise IP-100,2013-04-21 10:56:00,
2013-04-21 07:01:00,39.2,38.0,29.41,ESE,112,0.0,2.0,96,0.00,,,0.00,Rainwise IP-100,2013-04-21 11:01:00,
2013-04-21 07:06:00,39.3,38.0,29.41,ESE,112,1.0,2.0,96,0.00,,,0.00,Rainwise IP-100,2013-04-21 11:06:00,
2013-04-21 07:11:00,39.5,39.0,29.41,ESE,112,0.0,2.0,96,0.00,,,0.00,Rainwise IP-100,2013-04-21 11:11:00,
2013-04-21 07:16:00,39.8,39.0,29.42,ESE,112,1.0,2.0,96,0.00,,,0.00,Rainwise IP-100,2013-04-21 11:16:00,
2013-04-21 07:21:00,40.1,39.0,29.42,ESE,112,2.0,2.0,96,0.00,,,0.00,Rainwise IP-100,2013-04-21 11:21:00,
2013-04-21 07:26:00,40.6,40.0,29.43,ESE,112,2.0,2.0,96,0.00,,,0.00,Rainwise IP-100,2013-04-21 11:26:00,
2013-04-21 07:31:00,41.2,40.0,29.43,East,90,1.0,2.0,96,0.00,,,0.00,Rainwise IP-100,2013-04-21 11:31:00,
2013-04-21 07:36:00,41.5,41.0,29.45,SE,135,0.0,2.0,96,0.00,,,0.00,Rainwise IP-100,2013-04-21 11:36:00,
2013-04-21 07:41:00,41.5,41.0,29.45,SSW,202,1.0,2.0,96,0.00,,,0.00,Rainwise IP-100,2013-04-21 11:41:00,
2013-04-21 07:46:00,41.6,41.0,29.45,SSW,202,1.0,2.0,96,0.00,,,0.00,Rainwise IP-100,2013-04-21 11:46:00,
2013-04-21 07:51:00,41.8,41.0,29.45,South,180,0.0,2.0,96,0.00,,,0.00,Rainwise IP-100,2013-04-21 11:51:00,
2013-04-21 07:56:00,42.2,41.0,29.46,NE,45,1.0,1.0,96,0.00,,,0.00,Rainwise IP-100,2013-04-21 11:56:00,
2013-04-21 08:01:00,42.6,42.0,29.46,NE,45,1.0,2.0,96,0.00,,,0.00,Rainwise IP-100,2013-04-21 12:01:00,
2013-04-21 08:06:00,42.9,42.0,29.47,NE,45,2.0,2.0,96,0.00,,,0.00,Rainwise IP-100,2013-04-21 12:06:00,
2013-04-21 08:11:00,43.4,42.0,29.47,NE,45,2.0,2.0,96,0.00,,,0.00,Rainwise IP-100,2013-04-21 12:11:00,
2013-04-21 08:16:00,44.2,43.0,29.48,NE,45,1.0,2.0,96,0.00,,,0.00,Rainwise IP-100,2013-04-21 12:16:00,
2013-04-21 08:21:00,44.9,44.0,29.49,NE,45,1.0,4.0,96,0.00,,,0.00,Rainwise IP-100,2013-04-21 12:21:00,
2013-04-21 08:26:00,46.1,45.0,29.50,NE,45,1.0,3.0,97,0.00,,,0.00,Rainwise IP-100,2013-04-21 12:26:00,
2013-04-21 08:31:00,46.9,45.0,29.52,NE,45,0.0,4.0,95,0.00,,,0.00,Rainwise IP-100,2013-04-21 12:31:00,
2013-04-21 08:36:00,47.7,45.0,29.53,ENE,67,1.0,4.0,91,0.00,,,0.00,Rainwise IP-100,2013-04-21 12:36:00,
2013-04-21 08:41:00,48.3,45.0,29.54,ENE,67,2.0,4.0,87,0.00,,,0.00,Rainwise IP-100,2013-04-21 12:41:00,
2013-04-21 08:46:00,48.7,45.0,29.56,ENE,67,2.0,6.0,85,0.00,,,0.00,Rainwise IP-100,2013-04-21 12:46:00,
2013-04-21 08:51:00,49.2,44.0,29.56,ENE,67,7.0,7.0,83,0.00,,,0.00,Rainwise IP-100,2013-04-21 12:51:00,
2013-04-21 08:56:00,49.3,43.0,29.57,East,90,7.0,9.0,79,0.00,,,0.00,Rainwise IP-100,2013-04-21 12:56:00,
2013-04-21 09:01:00,49.8,42.0,29.57,East,90,2.0,9.0,75,0.00,,,0.00,Rainwise IP-100,2013-04-21 13:01:00,
2013-04-21 09:06:00,50.3,42.0,29.58,East,90,6.0,9.0,73,0.00,,,0.00,Rainwise IP-100,2013-04-21 13:06:00,
2013-04-21 09:11:00,51.1,41.0,29.58,NE,45,6.0,8.0,69,0.00,,,0.00,Rainwise IP-100,2013-04-21 13:11:00,
2013-04-21 09:16:00,51.6,41.0,29.59,NE,45,6.0,11.0,67,0.00,,,0.00,Rainwise IP-100,2013-04-21 13:16:00,
2013-04-21 09:21:00,52.3,41.0,29.59,NE,45,4.0,7.0,66,0.00,,,0.00,Rainwise IP-100,2013-04-21 13:21:00,
2013-04-21 09:26:00,52.8,41.0,29.60,ENE,67,2.0,8.0,65,0.00,,,0.00,Rainwise IP-100,2013-04-21 13:26:00,
2013-04-21 09:31:00,52.9,40.0,29.60,ENE,67,7.0,12.0,62,0.00,,,0.00,Rainwise IP-100,2013-04-21 13:31:00,
2013-04-21 09:36:00,53.2,39.0,29.61,ENE,67,6.0,9.0,61,0.00,,,0.00,Rainwise IP-100,2013-04-21 13:36:00,
2013-04-21 09:41:00,53.4,40.0,29.61,ENE,67,5.0,11.0,61,0.00,,,0.00,Rainwise IP-100,2013-04-21 13:41:00,
2013-04-21 09:46:00,54.4,41.0,29.62,East,90,3.0,7.0,60,0.00,,,0.00,Rainwise IP-100,2013-04-21 13:46:00,
2013-04-21 09:51:00,55.1,41.0,29.62,NE,45,3.0,8.0,58,0.00,,,0.00,Rainwise IP-100,2013-04-21 13:51:00,
2013-04-21 09:56:00,55.2,40.0,29.62,NE,45,8.0,11.0,57,0.00,,,0.00,Rainwise IP-100,2013-04-21 13:56:00,
2013-04-21 10:01:00,54.8,40.0,29.63,NE,45,9.0,13.0,57,0.00,,,0.00,Rainwise IP-100,2013-04-21 14:01:00,
2013-04-21 10:06:00,54.7,40.0,29.63,ENE,67,10.0,12.0,57,0.00,,,0.00,Rainwise IP-100,2013-04-21 14:06:00,
2013-04-21 10:11:00,55.0,41.0,29.63,East,90,5.0,12.0,58,0.00,,,0.00,Rainwise IP-100,2013-04-21 14:11:00,
2013-04-21 10:16:00,55.8,41.0,29.63,NE,45,4.0,11.0,57,0.00,,,0.00,Rainwise IP-100,2013-04-21 14:16:00,
2013-04-21 10:21:00,56.4,40.0,29.64,NNE,22,6.0,13.0,55,0.00,,,0.00,Rainwise IP-100,2013-04-21 14:21:00,
2013-04-21 10:26:00,56.5,40.0,29.64,ENE,67,11.0,12.0,55,0.00,,,0.00,Rainwise IP-100,2013-04-21 14:26:00,
2013-04-21 10:31:00,56.2,40.0,29.64,NE,45,6.0,15.0,55,0.00,,,0.00,Rainwise IP-100,2013-04-21 14:31:00,
2013-04-21 10:36:00,56.2,40.0,29.64,NE,45,10.0,14.0,55,0.00,,,0.00,Rainwise IP-100,2013-04-21 14:36:00,
2013-04-21 10:41:00,56.4,40.0,29.64,NE,45,7.0,15.0,55,0.00,,,0.00,Rainwise IP-100,2013-04-21 14:41:00,
2013-04-21 10:46:00,56.3,40.0,29.64,NE,45,6.0,16.0,54,0.00,,,0.00,Rainwise IP-100,2013-04-21 14:46:00,
2013-04-21 10:51:00,56.2,40.0,29.64,NNE,22,4.0,16.0,55,0.00,,,0.00,Rainwise IP-100,2013-04-21 14:51:00,
2013-04-21 10:56:00,57.1,40.0,29.65,ENE,67,6.0,14.0,54,0.00,,,0.00,Rainwise IP-100,2013-04-21 14:56:00,
2013-04-21 11:01:00,57.9,41.0,29.65,NE,45,6.0,12.0,53,0.00,,,0.00,Rainwise IP-100,2013-04-21 15:01:00,
2013-04-21 11:06:00,58.0,41.0,29.65,ESE,112,4.0,11.0,53,0.00,,,0.00,Rainwise IP-100,2013-04-21 15:06:00,
2013-04-21 11:11:00,58.2,41.0,29.66,NNE,22,3.0,10.0,53,0.00,,,0.00,Rainwise IP-100,2013-04-21 15:11:00,
2013-04-21 11:16:00,58.4,40.0,29.66,ENE,67,4.0,14.0,52,0.00,,,0.00,Rainwise IP-100,2013-04-21 15:16:00,
2013-04-21 11:21:00,57.8,40.0,29.66,NE,45,6.0,16.0,52,0.00,,,0.00,Rainwise IP-100,2013-04-21 15:21:00,
2013-04-21 11:26:00,58.4,41.0,29.66,ESE,112,2.0,13.0,53,0.00,,,0.00,Rainwise IP-100,2013-04-21 15:26:00,
2013-04-21 11:31:00,58.9,42.0,29.66,ENE,67,3.0,11.0,53,0.00,,,0.00,Rainwise IP-100,2013-04-21 15:31:00,
2013-04-21 11:36:00,59.5,42.0,29.66,East,90,7.0,9.0,52,0.00,,,0.00,Rainwise IP-100,2013-04-21 15:36:00,
2013-04-21 11:41:00,60.2,41.0,29.66,ESE,112,1.0,12.0,50,0.00,,,0.00,Rainwise IP-100,2013-04-21 15:41:00,
2013-04-21 11:46:00,59.9,42.0,29.66,NE,45,7.0,11.0,52,0.00,,,0.00,Rainwise IP-100,2013-04-21 15:46:00,
2013-04-21 11:51:00,59.6,42.0,29.66,NE,45,12.0,12.0,52,0.00,,,0.00,Rainwise IP-100,2013-04-21 15:51:00,
2013-04-21 11:56:00,60.2,42.0,29.66,SSE,157,4.0,13.0,52,0.00,,,0.00,Rainwise IP-100,2013-04-21 15:56:00,
2013-04-21 12:01:00,60.5,43.0,29.66,East,90,2.0,13.0,52,0.00,,,0.00,Rainwise IP-100,2013-04-21 16:01:00,
2013-04-21 12:06:00,60.7,42.0,29.66,ESE,112,9.0,12.0,51,0.00,,,0.00,Rainwise IP-100,2013-04-21 16:06:00,
2013-04-21 12:11:00,59.9,42.0,29.66,NE,45,4.0,15.0,51,0.00,,,0.00,Rainwise IP-100,2013-04-21 16:11:00,
2013-04-21 12:16:00,59.8,42.0,29.66,East,90,5.0,16.0,51,0.00,,,0.00,Rainwise IP-100,2013-04-21 16:16:00,
2013-04-21 12:21:00,60.1,42.0,29.65,East,90,2.0,11.0,52,0.00,,,0.00,Rainwise IP-100,2013-04-21 16:21:00,
2013-04-21 12:26:00,60.9,41.0,29.66,NE,45,10.0,13.0,49,0.00,,,0.00,Rainwise IP-100,2013-04-21 16:26:00,
2013-04-21 12:31:00,60.1,41.0,29.65,ESE,112,6.0,16.0,50,0.00,,,0.00,Rainwise IP-100,2013-04-21 16:31:00,
2013-04-21 12:36:00,60.3,42.0,29.65,SE,135,6.0,13.0,50,0.00,,,0.00,Rainwise IP-100,2013-04-21 16:36:00,
2013-04-21 12:41:00,60.6,42.0,29.65,SE,135,2.0,12.0,50,0.00,,,0.00,Rainwise IP-100,2013-04-21 16:41:00,
2013-04-21 12:46:00,61.3,41.0,29.64,NNE,22,10.0,17.0,48,0.00,,,0.00,Rainwise IP-100,2013-04-21 16:46:00,
2013-04-21 12:51:00,61.0,41.0,29.64,NNE,22,7.0,19.0,49,0.00,,,0.00,Rainwise IP-100,2013-04-21 16:51:00,
2013-04-21 12:56:00,60.7,42.0,29.64,NE,45,12.0,16.0,50,0.00,,,0.00,Rainwise IP-100,2013-04-21 16:56:00,
2013-04-21 13:01:00,60.8,41.0,29.64,NE,45,6.0,15.0,49,0.00,,,0.00,Rainwise IP-100,2013-04-21 17:01:00,
2013-04-21 13:06:00,61.6,42.0,29.64,ENE,67,11.0,13.0,49,0.00,,,0.00,Rainwise IP-100,2013-04-21 17:06:00,
2013-04-21 13:11:00,61.7,42.0,29.64,East,90,10.0,16.0,49,0.00,,,0.00,Rainwise IP-100,2013-04-21 17:11:00,
2013-04-21 13:16:00,61.5,41.0,29.64,NNE,22,6.0,17.0,48,0.00,,,0.00,Rainwise IP-100,2013-04-21 17:16:00,
2013-04-21 13:21:00,61.6,40.0,29.64,ENE,67,12.0,15.0,46,0.00,,,0.00,Rainwise IP-100,2013-04-21 17:21:00,
2013-04-21 13:26:00,62.1,41.0,29.64,East,90,7.0,17.0,46,0.00,,,0.00,Rainwise IP-100,2013-04-21 17:26:00,
2013-04-21 13:31:00,61.9,41.0,29.64,ESE,112,4.0,16.0,46,0.00,,,0.00,Rainwise IP-100,2013-04-21 17:31:00,
2013-04-21 13:36:00,62.9,41.0,29.64,ENE,67,9.0,11.0,44,0.00,,,0.00,Rainwise IP-100,2013-04-21 17:36:00,
2013-04-21 13:41:00,63.3,40.0,29.65,East,90,6.0,14.0,42,0.00,,,0.00,Rainwise IP-100,2013-04-21 17:41:00,
2013-04-21 13:46:00,63.4,41.0,29.65,SE,135,5.0,14.0,44,0.00,,,0.00,Rainwise IP-100,2013-04-21 17:46:00,
2013-04-21 13:51:00,63.4,40.0,29.65,NNE,22,7.0,12.0,43,0.00,,,0.00,Rainwise IP-100,2013-04-21 17:51:00,
2013-04-21 13:56:00,62.7,40.0,29.66,ENE,67,8.0,14.0,44,0.00,,,0.00,Rainwise IP-100,2013-04-21 17:56:00,
2013-04-21 14:01:00,62.5,41.0,29.65,ENE,67,6.0,14.0,45,0.00,,,0.00,Rainwise IP-100,2013-04-21 18:01:00,
2013-04-21 14:06:00,63.0,41.0,29.65,NE,45,8.0,15.0,45,0.00,,,0.00,Rainwise IP-100,2013-04-21 18:06:00,
2013-04-21 14:11:00,62.9,40.0,29.64,ENE,67,2.0,18.0,43,0.00,,,0.00,Rainwise IP-100,2013-04-21 18:11:00,
2013-04-21 14:16:00,63.4,40.0,29.65,East,90,9.0,17.0,42,0.00,,,0.00,Rainwise IP-100,2013-04-21 18:16:00,
2013-04-21 14:21:00,63.5,40.0,29.65,ESE,112,7.0,17.0,42,0.00,,,0.00,Rainwise IP-100,2013-04-21 18:21:00,
2013-04-21 14:26:00,63.6,39.0,29.65,ENE,67,11.0,19.0,41,0.00,,,0.00,Rainwise IP-100,2013-04-21 18:26:00,
2013-04-21 14:31:00,63.9,40.0,29.66,ESE,112,10.0,15.0,41,0.00,,,0.00,Rainwise IP-100,2013-04-21 18:31:00,
2013-04-21 14:36:00,63.9,40.0,29.66,East,90,8.0,16.0,41,0.00,,,0.00,Rainwise IP-100,2013-04-21 18:36:00,
2013-04-21 14:41:00,63.5,40.0,29.65,NE,45,9.0,15.0,42,0.00,,,0.00,Rainwise IP-100,2013-04-21 18:41:00,
2013-04-21 14:46:00,62.7,41.0,29.65,East,90,2.0,16.0,45,0.00,,,0.00,Rainwise IP-100,2013-04-21 18:46:00,
2013-04-21 14:51:00,62.9,40.0,29.64,ENE,67,8.0,20.0,43,0.00,,,0.00,Rainwise IP-100,2013-04-21 18:51:00,
2013-04-21 14:56:00,63.3,40.0,29.64,East,90,9.0,13.0,43,0.00,,,0.00,Rainwise IP-100,2013-04-21 18:56:00,
2013-04-21 15:01:00,64.1,40.0,29.64,East,90,4.0,16.0,41,0.00,,,0.00,Rainwise IP-100,2013-04-21 19:01:00,
2013-04-21 15:06:00,63.8,40.0,29.65,ENE,67,4.0,13.0,42,0.00,,,0.00,Rainwise IP-100,2013-04-21 19:06:00,
2013-04-21 15:11:00,63.5,40.0,29.64,SE,135,4.0,12.0,43,0.00,,,0.00,Rainwise IP-100,2013-04-21 19:11:00,
2013-04-21 15:16:00,64.2,40.0,29.64,ESE,112,3.0,9.0,42,0.00,,,0.00,Rainwise IP-100,2013-04-21 19:16:00,
2013-04-21 15:21:00,64.2,40.0,29.64,East,90,2.0,12.0,41,0.00,,,0.00,Rainwise IP-100,2013-04-21 19:21:00,
2013-04-21 15:26:00,63.5,39.0,29.64,ENE,67,10.0,16.0,41,0.00,,,0.00,Rainwise IP-100,2013-04-21 19:26:00,
2013-04-21 15:31:00,63.9,40.0,29.64,NE,45,5.0,16.0,42,0.00,,,0.00,Rainwise IP-100,2013-04-21 19:31:00,
2013-04-21 15:36:00,63.9,40.0,29.63,East,90,11.0,16.0,41,0.00,,,0.00,Rainwise IP-100,2013-04-21 19:36:00,
2013-04-21 15:41:00,64.9,41.0,29.64,ESE,112,2.0,14.0,42,0.00,,,0.00,Rainwise IP-100,2013-04-21 19:41:00,
2013-04-21 15:46:00,64.3,41.0,29.64,ENE,67,6.0,14.0,43,0.00,,,0.00,Rainwise IP-100,2013-04-21 19:46:00,
2013-04-21 15:51:00,63.9,41.0,29.63,East,90,6.0,14.0,43,0.00,,,0.00,Rainwise IP-100,2013-04-21 19:51:00,
2013-04-21 15:56:00,64.1,40.0,29.63,ENE,67,7.0,13.0,42,0.00,,,0.00,Rainwise IP-100,2013-04-21 19:56:00,
2013-04-21 16:01:00,63.9,40.0,29.63,East,90,11.0,20.0,42,0.00,,,0.00,Rainwise IP-100,2013-04-21 20:01:00,
2013-04-21 16:06:00,63.6,40.0,29.63,NE,45,4.0,14.0,43,0.00,,,0.00,Rainwise IP-100,2013-04-21 20:06:00,
2013-04-21 16:11:00,63.3,41.0,29.62,ESE,112,4.0,12.0,44,0.00,,,0.00,Rainwise IP-100,2013-04-21 20:11:00,
2013-04-21 16:16:00,64.1,40.0,29.61,East,90,11.0,12.0,42,0.00,,,0.00,Rainwise IP-100,2013-04-21 20:16:00,
2013-04-21 16:21:00,64.5,41.0,29.62,East,90,10.0,14.0,42,0.00,,,0.00,Rainwise IP-100,2013-04-21 20:21:00,
2013-04-21 16:26:00,63.8,41.0,29.61,East,90,9.0,15.0,43,0.00,,,0.00,Rainwise IP-100,2013-04-21 20:26:00,
2013-04-21 16:31:00,63.3,41.0,29.61,East,90,9.0,15.0,44,0.00,,,0.00,Rainwise IP-100,2013-04-21 20:31:00,
2013-04-21 16:36:00,63.4,40.0,29.60,East,90,7.0,14.0,42,0.00,,,0.00,Rainwise IP-100,2013-04-21 20:36:00,
2013-04-21 16:41:00,64.1,40.0,29.60,SE,135,2.0,14.0,42,0.00,,,0.00,Rainwise IP-100,2013-04-21 20:41:00,
2013-04-21 16:46:00,64.9,41.0,29.60,NE,45,13.0,13.0,42,0.00,,,0.00,Rainwise IP-100,2013-04-21 20:46:00,
2013-04-21 16:51:00,64.7,41.0,29.61,NE,45,6.0,19.0,42,0.00,,,0.00,Rainwise IP-100,2013-04-21 20:51:00,
2013-04-21 16:56:00,64.1,41.0,29.62,NE,45,5.0,15.0,43,0.00,,,0.00,Rainwise IP-100,2013-04-21 20:56:00,
2013-04-21 17:01:00,64.1,41.0,29.61,NE,45,9.0,16.0,43,0.00,,,0.00,Rainwise IP-100,2013-04-21 21:01:00,
2013-04-21 17:06:00,63.7,40.0,29.61,NE,45,9.0,14.0,43,0.00,,,0.00,Rainwise IP-100,2013-04-21 21:06:00,
2013-04-21 17:11:00,63.3,41.0,29.61,East,90,4.0,14.0,44,0.00,,,0.00,Rainwise IP-100,2013-04-21 21:11:00,
2013-04-21 17:16:00,63.4,41.0,29.60,NE,45,6.0,9.0,44,0.00,,,0.00,Rainwise IP-100,2013-04-21 21:16:00,
2013-04-21 17:21:00,64.1,40.0,29.60,NE,45,6.0,8.0,42,0.00,,,0.00,Rainwise IP-100,2013-04-21 21:21:00,
2013-04-21 17:26:00,65.1,40.0,29.60,North,360,6.0,13.0,41,0.00,,,0.00,Rainwise IP-100,2013-04-21 21:26:00,
2013-04-21 17:31:00,64.7,41.0,29.60,East,90,8.0,17.0,42,0.00,,,0.00,Rainwise IP-100,2013-04-21 21:31:00,
2013-04-21 17:36:00,64.1,41.0,29.61,East,90,8.0,13.0,43,0.00,,,0.00,Rainwise IP-100,2013-04-21 21:36:00,
2013-04-21 17:41:00,63.8,41.0,29.60,ENE,67,7.0,12.0,43,0.00,,,0.00,Rainwise IP-100,2013-04-21 21:41:00,
2013-04-21 17:46:00,64.1,40.0,29.60,East,90,3.0,12.0,42,0.00,,,0.00,Rainwise IP-100,2013-04-21 21:46:00,
2013-04-21 17:51:00,64.5,41.0,29.60,East,90,4.0,11.0,42,0.00,,,0.00,Rainwise IP-100,2013-04-21 21:51:00,
2013-04-21 17:56:00,64.4,41.0,29.60,ENE,67,1.0,12.0,42,0.00,,,0.00,Rainwise IP-100,2013-04-21 21:56:00,
2013-04-21 18:01:00,64.5,41.0,29.60,NE,45,2.0,9.0,42,0.00,,,0.00,Rainwise IP-100,2013-04-21 22:01:00,
2013-04-21 18:06:00,64.5,41.0,29.61,East,90,6.0,12.0,42,0.00,,,0.00,Rainwise IP-100,2013-04-21 22:06:00,
2013-04-21 18:11:00,64.4,41.0,29.60,NE,45,7.0,14.0,42,0.00,,,0.00,Rainwise IP-100,2013-04-21 22:11:00,
2013-04-21 18:16:00,63.8,41.0,29.61,East,90,6.0,14.0,43,0.00,,,0.00,Rainwise IP-100,2013-04-21 22:16:00,
2013-04-21 18:21:00,63.2,41.0,29.60,ENE,67,4.0,13.0,44,0.00,,,0.00,Rainwise IP-100,2013-04-21 22:21:00,
2013-04-21 18:26:00,62.9,41.0,29.60,ENE,67,3.0,9.0,45,0.00,,,0.00,Rainwise IP-100,2013-04-21 22:26:00,
2013-04-21 18:31:00,62.9,41.0,29.60,NE,45,2.0,6.0,44,0.00,,,0.00,Rainwise IP-100,2013-04-21 22:31:00,
2013-04-21 18:36:00,63.8,41.0,29.60,ENE,67,4.0,7.0,43,0.00,,,0.00,Rainwise IP-100,2013-04-21 22:36:00,
2013-04-21 18:41:00,63.7,40.0,29.60,NE,45,7.0,13.0,43,0.00,,,0.00,Rainwise IP-100,2013-04-21 22:41:00,
2013-04-21 18:46:00,63.1,41.0,29.60,NE,45,6.0,11.0,44,0.00,,,0.00,Rainwise IP-100,2013-04-21 22:46:00,
2013-04-21 18:51:00,62.9,42.0,29.60,NE,45,2.0,9.0,46,0.00,,,0.00,Rainwise IP-100,2013-04-21 22:51:00,
2013-04-21 18:56:00,62.4,41.0,29.60,NE,45,2.0,10.0,46,0.00,,,0.00,Rainwise IP-100,2013-04-21 22:56:00,
2013-04-21 19:01:00,62.0,41.0,29.60,ENE,67,8.0,9.0,47,0.00,,,0.00,Rainwise IP-100,2013-04-21 23:01:00,
2013-04-21 19:06:00,61.8,41.0,29.59,East,90,6.0,11.0,47,0.00,,,0.00,Rainwise IP-100,2013-04-21 23:06:00,
2013-04-21 19:11:00,61.6,41.0,29.59,NE,45,4.0,11.0,47,0.00,,,0.00,Rainwise IP-100,2013-04-21 23:11:00,
2013-04-21 19:16:00,61.4,41.0,29.59,ENE,67,3.0,10.0,48,0.00,,,0.00,Rainwise IP-100,2013-04-21 23:16:00,
2013-04-21 19:21:00,61.2,41.0,29.58,ESE,112,3.0,7.0,49,0.00,,,0.00,Rainwise IP-100,2013-04-21 23:21:00,
2013-04-21 19:26:00,60.9,41.0,29.58,East,90,2.0,6.0,49,0.00,,,0.00,Rainwise IP-100,2013-04-21 23:26:00,
2013-04-21 19:31:00,60.6,42.0,29.58,ENE,67,1.0,6.0,50,0.00,,,0.00,Rainwise IP-100,2013-04-21 23:31:00,
2013-04-21 19:36:00,60.3,42.0,29.58,NE,45,6.0,8.0,51,0.00,,,0.00,Rainwise IP-100,2013-04-21 23:36:00,
2013-04-21 19:41:00,60.1,42.0,29.58,NE,45,1.0,7.0,52,0.00,,,0.00,Rainwise IP-100,2013-04-21 23:41:00,
2013-04-21 19:46:00,59.8,43.0,29.58,SE,135,1.0,6.0,53,0.00,,,0.00,Rainwise IP-100,2013-04-21 23:46:00,
2013-04-21 19:51:00,59.5,43.0,29.58,ENE,67,1.0,5.0,54,0.00,,,0.00,Rainwise IP-100,2013-04-21 23:51:00,
2013-04-21 19:56:00,59.1,43.0,29.58,ENE,67,3.0,4.0,55,0.00,,,0.00,Rainwise IP-100,2013-04-21 23:56:00,
2013-04-21 20:01:00,58.9,43.0,29.58,ENE,67,2.0,4.0,56,0.00,,,0.00,Rainwise IP-100,2013-04-22 00:01:00,
2013-04-21 20:06:00,58.5,44.0,29.57,ENE,67,2.0,4.0,57,0.00,,,0.00,Rainwise IP-100,2013-04-22 00:06:00,
2013-04-21 20:11:00,58.2,43.0,29.57,East,90,2.0,3.0,58,0.00,,,0.00,Rainwise IP-100,2013-04-22 00:11:00,
2013-04-21 20:16:00,57.9,43.0,29.57,ENE,67,3.0,3.0,58,0.00,,,0.00,Rainwise IP-100,2013-04-22 00:16:00,
2013-04-21 20:21:00,57.7,43.0,29.57,ENE,67,2.0,4.0,58,0.00,,,0.00,Rainwise IP-100,2013-04-22 00:21:00,
2013-04-21 20:26:00,57.3,43.0,29.57,ENE,67,2.0,3.0,59,0.00,,,0.00,Rainwise IP-100,2013-04-22 00:26:00,
2013-04-21 20:31:00,57.1,43.0,29.57,NE,45,2.0,4.0,60,0.00,,,0.00,Rainwise IP-100,2013-04-22 00:31:00,
2013-04-21 20:36:00,56.8,44.0,29.57,East,90,2.0,5.0,61,0.00,,,0.00,Rainwise IP-100,2013-04-22 00:36:00,
2013-04-21 20:41:00,56.5,44.0,29.57,ENE,67,2.0,5.0,62,0.00,,,0.00,Rainwise IP-100,2013-04-22 00:41:00,
2013-04-21 20:46:00,56.2,43.0,29.56,NE,45,2.0,4.0,63,0.00,,,0.00,Rainwise IP-100,2013-04-22 00:46:00,
2013-04-21 20:51:00,55.8,44.0,29.56,ENE,67,2.0,3.0,64,0.00,,,0.00,Rainwise IP-100,2013-04-22 00:51:00,
2013-04-21 20:56:00,55.6,44.0,29.56,ENE,67,2.0,2.0,64,0.00,,,0.00,Rainwise IP-100,2013-04-22 00:56:00,
2013-04-21 21:01:00,55.4,44.0,29.56,ENE,67,2.0,5.0,65,0.00,,,0.00,Rainwise IP-100,2013-04-22 01:01:00,
2013-04-21 21:06:00,55.1,44.0,29.56,NE,45,3.0,4.0,65,0.00,,,0.00,Rainwise IP-100,2013-04-22 01:06:00,
2013-04-21 21:11:00,54.9,44.0,29.56,East,90,1.0,4.0,66,0.00,,,0.00,Rainwise IP-100,2013-04-22 01:11:00,
2013-04-21 21:16:00,54.7,44.0,29.56,East,90,1.0,2.0,67,0.00,,,0.00,Rainwise IP-100,2013-04-22 01:16:00,
2013-04-21 21:21:00,54.5,44.0,29.56,ENE,67,2.0,4.0,67,0.00,,,0.00,Rainwise IP-100,2013-04-22 01:21:00,
2013-04-21 21:26:00,54.4,44.0,29.56,ENE,67,2.0,4.0,67,0.00,,,0.00,Rainwise IP-100,2013-04-22 01:26:00,
2013-04-21 21:31:00,54.1,44.0,29.56,ENE,67,3.0,4.0,69,0.00,,,0.00,Rainwise IP-100,2013-04-22 01:31:00,
2013-04-21 21:36:00,53.9,44.0,29.56,ENE,67,1.0,4.0,69,0.00,,,0.00,Rainwise IP-100,2013-04-22 01:36:00,
2013-04-21 21:41:00,53.6,44.0,29.56,ENE,67,3.0,4.0,70,0.00,,,0.00,Rainwise IP-100,2013-04-22 01:41:00,
2013-04-21 21:46:00,53.6,44.0,29.56,NE,45,2.0,4.0,70,0.00,,,0.00,Rainwise IP-100,2013-04-22 01:46:00,
2013-04-21 21:51:00,53.5,43.0,29.56,ENE,67,4.0,5.0,69,0.00,,,0.00,Rainwise IP-100,2013-04-22 01:51:00,
2013-04-21 21:56:00,53.5,43.0,29.56,East,90,2.0,6.0,69,0.00,,,0.00,Rainwise IP-100,2013-04-22 01:56:00,
2013-04-21 22:01:00,53.4,43.0,29.56,ENE,67,2.0,4.0,69,0.00,,,0.00,Rainwise IP-100,2013-04-22 02:01:00,
2013-04-21 22:06:00,53.4,43.0,29.56,East,90,1.0,4.0,69,0.00,,,0.00,Rainwise IP-100,2013-04-22 02:06:00,
2013-04-21 22:11:00,53.3,43.0,29.56,NE,45,1.0,4.0,69,0.00,,,0.00,Rainwise IP-100,2013-04-22 02:11:00,
2013-04-21 22:16:00,53.2,43.0,29.56,East,90,1.0,6.0,69,0.00,,,0.00,Rainwise IP-100,2013-04-22 02:16:00,
2013-04-21 22:21:00,53.1,43.0,29.55,East,90,4.0,4.0,69,0.00,,,0.00,Rainwise IP-100,2013-04-22 02:21:00,
2013-04-21 22:26:00,53.2,42.0,29.55,East,90,4.0,6.0,68,0.00,,,0.00,Rainwise IP-100,2013-04-22 02:26:00,
2013-04-21 22:31:00,53.1,43.0,29.55,ENE,67,2.0,6.0,69,0.00,,,0.00,Rainwise IP-100,2013-04-22 02:31:00,
2013-04-21 22:36:00,52.9,43.0,29.55,East,90,2.0,4.0,69,0.00,,,0.00,Rainwise IP-100,2013-04-22 02:36:00,
2013-04-21 22:41:00,52.8,43.0,29.55,East,90,2.0,4.0,70,0.00,,,0.00,Rainwise IP-100,2013-04-22 02:41:00,
2013-04-21 22:46:00,52.7,43.0,29.55,East,90,2.0,4.0,70,0.00,,,0.00,Rainwise IP-100,2013-04-22 02:46:00,
2013-04-21 22:51:00,52.7,43.0,29.55,East,90,2.0,6.0,70,0.00,,,0.00,Rainwise IP-100,2013-04-22 02:51:00,
2013-04-21 22:56:00,52.6,43.0,29.55,ENE,67,1.0,5.0,70,0.00,,,0.00,Rainwise IP-100,2013-04-22 02:56:00,
2013-04-21 23:01:00,52.4,42.0,29.55,ENE,67,2.0,3.0,70,0.00,,,0.00,Rainwise IP-100,2013-04-22 03:01:00,
2013-04-21 23:06:00,52.3,43.0,29.55,ENE,67,2.0,4.0,71,0.00,,,0.00,Rainwise IP-100,2013-04-22 03:06:00,
2013-04-21 23:11:00,52.3,43.0,29.55,East,90,2.0,4.0,71,0.00,,,0.00,Rainwise IP-100,2013-04-22 03:11:00,
2013-04-21 23:16:00,52.2,43.0,29.55,ENE,67,1.0,6.0,71,0.00,,,0.00,Rainwise IP-100,2013-04-22 03:16:00,
2013-04-21 23:21:00,52.1,43.0,29.55,NE,45,4.0,6.0,71,0.00,,,0.00,Rainwise IP-100,2013-04-22 03:21:00,
2013-04-21 23:26:00,51.9,43.0,29.55,ENE,67,2.0,4.0,71,0.00,,,0.00,Rainwise IP-100,2013-04-22 03:26:00,
2013-04-21 23:31:00,51.7,43.0,29.54,ENE,67,2.0,4.0,71,0.00,,,0.00,Rainwise IP-100,2013-04-22 03:31:00,
2013-04-21 23:36:00,51.6,43.0,29.54,ENE,67,2.0,5.0,72,0.00,,,0.00,Rainwise IP-100,2013-04-22 03:36:00,
2013-04-21 23:41:00,51.4,42.0,29.54,ENE,67,2.0,6.0,72,0.00,,,0.00,Rainwise IP-100,2013-04-22 03:41:00,
2013-04-21 23:46:00,51.3,42.0,29.54,East,90,1.0,5.0,72,0.00,,,0.00,Rainwise IP-100,2013-04-22 03:46:00,
2013-04-21 23:51:00,51.1,43.0,29.54,ENE,67,2.0,5.0,74,0.00,,,0.00,Rainwise IP-100,2013-04-22 03:51:00,
2013-04-21 23:56:00,51.0,43.0,29.54,ENE,67,4.0,6.0,73,0.00,,,0.00,Rainwise IP-100,2013-04-22 03:56:00,